Miscellaneous Local Product
Issued by NWS Hastings, NE

Home | Current Version | Previous Version | Text Only | Print | Product List | Glossary Off
Versions: 1 2 3 4 5 6 7 8 9 10 11 12 13 14 15 16 17 18 19 20 21 22 23 24 25 26 27 28 29 30 31 32 33 34 35 36 37 38 39 40 41 42 43 44 45 46 47 48 49 50

000
AXUS43 KGID 251502
MISGRI

GID CWA HOURLY WEATHER ROUNDUP
NATIONAL WEATHER SERVICE HASTINGS NE
1000 AM CDT MON MAY 25 2015

NOTE: "FAIR" INDICATES FEW OR NO CLOUDS BELOW 12,000 FEET WITH NO
SIGNIFICANT WEATHER AND/OR OBSTRUCTIONS TO VISIBILITY.

...SOUTH CENTRAL NEBRASKA...

CITY           SKY/WX    TMP DP  RH WIND       PRES   REMARKS
GRAND ISLAND   SUNNY     65  53  65 SW8       29.80S
HASTINGS       SUNNY     66  53  63 SW6       29.81S
KEARNEY        SUNNY     63  52  67 SW7       29.81R
ORD            MOSUNNY   62  55  77 SW6       29.76S
YORK           MOSUNNY   63  57  82 SW10      29.82R
AURORA         MOSUNNY   65  56  72 SW12      29.81R
LEXINGTON      MOSUNNY   64  55  73 W5        29.80F
HOLDREGE       SUNNY     62  54  74 SW5       29.81S
HEBRON         CLOUDY    62  56  80 SW7       29.83F

...NEBRASKA PANHANDLE...

CITY           SKY/WX    TMP DP  RH WIND       PRES   REMARKS
CHADRON        CLOUDY    53  50  89 N12       29.83S
ALLIANCE       LGT RAIN  51  48  89 NW7       29.81R FOG
SCOTTSBLUFF    LGT RAIN  51  50  96 W8        29.85R
SIDNEY         LGT RAIN  50  48  93 NW9       29.85S

...WESTERN AND NORTH CENTRAL NEBRASKA...

CITY           SKY/WX    TMP DP  RH WIND       PRES   REMARKS
VALENTINE      CLOUDY    61  55  81 NE9       29.77S
AINSWORTH      HVY RAIN  57  57 100 NE10      29.77S
ONEILL         LGT RAIN  60  60  99 E5        29.79S
BROKEN BOW     MOSUNNY   62  54  74 W8        29.78S
IMPERIAL       PTSUNNY   56  51  84 NW5       29.83R
NORTH PLATTE   PTSUNNY   57  52  83 SW6       29.81S
MCCOOK         SUNNY     62  53  72 SW8       29.81S

...EASTERN NEBRASKA...

CITY           SKY/WX    TMP DP  RH WIND       PRES   REMARKS
NORFOLK        CLOUDY    63  59  87 S8        29.78S
SO SIOUX CITY  CLOUDY    64  60  87 SW5       29.78F FOG
TEKAMAH        CLOUDY    67  60  78 SW12      29.80R
COLUMBUS       CLOUDY    63  52  67 SW10      29.82S
ALBION         CLOUDY    61  56  84 S8        29.79R
OMAHA EPPLEY   PTSUNNY   66  59  78 S8        29.82R
OFFUTT AFB     CLOUDY    68  61  78 VRB5      29.82R
MILLARD        CLOUDY    66  59  79 SW3       29.83R
LINCOLN        MOSUNNY   67  58  72 SW7       29.82F
NEBRASKA CITY  MOSUNNY   66  58  76 S12       29.82R
BEATRICE       PTSUNNY   66  58  77 SW15      29.84R
FALLS CITY     MOSUNNY   70  59  68 S14G25    29.81R

...NORTHERN KANSAS...

CITY           SKY/WX    TMP DP  RH WIND       PRES   REMARKS
GOODLAND       MOSUNNY   59  50  72 NW12      29.85S
HILL CITY      MOSUNNY   63  55  75 VRB6      29.82F
NORTON         MOSUNNY   63  52  67 S9        29.81F
PHILLIPSBURG   CLOUDY    63  57  82 CALM      29.82F
SMITH CENTER   CLOUDY    61  55  82 SE9       29.83S
HAYS           CLOUDY    61  52  72 SE10      29.81F
RUSSELL        SUNNY     64  59  83 SE15      29.79F
CONCORDIA      CLOUDY    63  58  83 S10       29.82F
SALINA         CLOUDY    65  60  84 SE9       29.83F
TOPEKA         SUNNY     68  61  78 SE13      29.86S



USA.gov is the U.S. government's official web portal to all federal, state and local government web resources and services.